[Iaude] MPEC B132: 2023 WX1 [a=1.78,e=0.61,i=7.7,H=20.92]

mpec at marsden.cfa.harvard.edu mpec at marsden.cfa.harvard.edu
Thu Jan 25 09:09:36 EST 2024


M.P.E.C. 2024-B132                             Issued 2024 January 25, 14:08 UT

     The Minor Planet Electronic Circulars contain information on unusual
         minor planets, routine data on comets and natural satellites,
         and occasional editorial announcements.  They are published
    on behalf of Division F of the International Astronomical Union by the
          Minor Planet Center, Smithsonian Astrophysical Observatory,
                          Cambridge, MA 02138, U.S.A.
			  
             Prepared using the Tamkin Foundation Computer Network

                              MPC at CFA.HARVARD.EDU
            URL https://www.minorplanetcenter.net/    ISSN 1523-6714

                                    2023 WX1                                    


                           Revision to MPEC 2023-W79                            

Additional Observations:
     K23W01X  C2004 11 20.51182 05 29 45.53 +26 21 13.2          20.7 VcEB132691
     K23W01X  C2004 11 20.52288 05 29 45.06 +26 21 22.7          20.8 VcEB132691
     K23W01X  C2004 11 20.53362 05 29 44.60 +26 21 33.3          20.8 VcEB132691
     K23W01X &C2019 07 03.97737810 48 27.94 +06 55 11.2                WEB132W84
     K23W01X &C2019 07 03.98477610 48 30.74 +06 54 47.0                WEB132W84
     K23W01X &C2019 07 03.99217710 48 33.54 +06 54 22.0                WEB132W84
     K23W01X &C2019 07 04.00864310 48 39.76 +06 53 27.8                WEB132W84
     K23W01X &C2019 07 04.02719510 48 46.76 +06 52 26.7                WEB132W84
     K23W01X &C2019 07 04.02798510 48 47.07 +06 52 24.3                WEB132W84

Observer details:
691 Steward Observatory, Kitt Peak-Spacewatch.  Observer T. H. Bressi.  0.9-m
    f/3 reflector + CCD.
W84 Cerro Tololo-DECam.  Observer J. Pena.  Measurer S. Deen.  4.0-m reflector
    + CCD.

Orbital elements:
2023 WX1                                            PHA, Earth MOID = 0.0436 AU
Epoch 2023 Sept. 13.0 TT = JDT 2460200.5                Veres                   
M 289.49544              (2000.0)            P               Q                  
n   0.41414127     Peri.  118.68617     -0.99188650     -0.05457991             
a   1.7825308      Node    58.39918     -0.00423707     -0.88845000             
e   0.6106043      Incl.    7.74719     +0.12705593     -0.45571660             
P   2.38           H   20.92          G   0.15           U   0                  
Residuals in seconds of arc
041120 691  0.0   0.0     231203 858  0.0   0.3+    231216 F51  0.0   0.0
041120 691  0.1+  0.8-    231203 G96  0.2+  0.0     231217 F52  0.0   0.1+
041120 691  0.1+  0.2-    231203 G96  0.1+  0.1+    231217 F52  0.1+  0.1+
190703 W84  0.2+  0.3-    231203 G96  0.1+  0.0     231217 F52  0.2+  0.0
190703 W84  0.3+  0.1-    231203 G96  0.0   0.1-    231226 F52  0.1-  0.1-
190703 W84  0.4+  0.7-    231203 691  0.2+  0.2+    231226 F52  0.1+  0.0
190704 W84  0.3+  0.4-    231203 691  0.1-  0.2+    231226 F52  0.2-  0.3-
190704 W84  0.0   0.2-    231203 691  0.1+  0.1+    231227 F52  0.3+  0.0
190704 W84  0.2+  0.0     231209 T12  0.0   0.0     231227 F52  0.0   0.1-
231118 O18  0.0   0.0     231209 F52  0.0   0.1+    231227 F52  0.1-  0.0
231118 O18  0.0   0.0     231209 F52  0.1+  0.0     231227 F51  0.1+  0.1+
231118 O18  0.0   0.1+    231209 F52  0.1+  0.0     231227 F51  0.1-  0.2+
231119 O18  0.0   0.0     231209 F52  0.1+  0.1-    231227 F51  0.1+  0.1-
231119 O18  0.1+  0.0     231211 I52  0.0   0.1+    231227 F51  0.1-  0.0
231119 O18  0.1+  0.0     231211 I52  0.1+  0.1+    231228 F52  0.1+  0.1-
231121 204  0.2+  0.1+    231211 I52  0.2-  0.2+    231228 F52  0.0   0.2+
231121 204  0.4+  0.3+    231211 I52  0.1+  0.0     231228 F52  0.1-  0.1+
231121 204  0.3+  0.4+    231211 Z84  0.1+  0.1+    231228 F51  0.1+  0.1+
231122 H36  0.1+  0.5+    231211 Z84  0.2-  0.1+    231228 F51  0.0   0.0
231122 H36  0.1-  0.1-    231212 H36  1.5-  0.9-    231228 F51  0.0   0.1+
231122 H36  0.1+  0.2-    231212 H36  0.3-  0.1+    231228 F51  0.1+  0.0
231122 H21  0.1-  0.0     231212 H36  0.3-  0.9-    231229 F51  0.1-  0.1-
231122 H21  0.1-  0.0     231212 I52  0.2-  0.0     231229 F51  0.1-  0.0
231122 H21  0.3-  0.2+    231212 I52  0.4+  0.2-    231229 F51  0.0   0.1-
231122 H21  0.2-  0.3+    231212 I52  0.2+  0.1+    240101 F52  0.0   0.1-
231122 H21  0.1-  0.4+    231212 I52  0.4+  0.5-    240101 F52  0.1+  0.1-
231122 G96  0.0   0.2-    231213 I52  0.4-  0.0     240101 F52  0.0   0.1-
231122 G96  0.4-  0.2+    231213 I52  0.5-  0.0     240103 G96  0.2-  0.2+
231122 G96  0.9+  0.1+    231213 I52  0.1-  0.1+    240103 G96  0.2-  0.1-
231122 G96  0.2+  0.2-    231213 I52  0.1+  0.1-    240103 G96  0.0   0.1+
231123 691  0.2+  0.1+    231214 I52 (0.8+  0.8+)   240103 G96  0.2+  0.2-
231123 691  0.3-  0.2+    231214 I52  0.6+  0.2-    240110 033  0.1-  0.3+
231123 691  0.0   0.1-    231214 I52  0.1-  0.5-    240110 033  0.1-  0.5+
231124 G96  0.4-  0.8-    231215 G96  0.4-  0.1+    240110 033  0.0   0.6+
231124 G96  0.3-  0.6-    231215 G96  0.1+  0.1-    240110 033  0.1-  0.4+
231124 G96  0.3-  0.1+    231215 G96  0.2+  0.0     240116 033  0.1+  0.6-
231124 G96  0.6-  0.1+    231216 F51  0.1-  0.0     240116 033  0.7+  0.1-
231203 858  0.4-  0.1+    231216 F51  0.0   0.1+    240116 033  0.7+  0.8-
231203 858  0.2-  0.1+    231216 F51  0.0   0.0

Ephemeris:
2023 WX1                 a,e,i = 1.78, 0.61, 8                   q = 0.6941
Date    TT    R. A. (2000) Decl.     Delta      r    Elong.  Phase     V
2023 12 26    02 09 00.9 +25 42 26   0.3072  1.1844   124.4    43.3    20.4
...
2024 01 10    00 54 14.5 +24 54 26   0.2731  1.0357    93.3    71.4    20.7
...
2024 01 18    00 13 00.5 +23 44 35   0.2599  0.9579    76.7    88.0    21.0
...
2024 01 24    23 39 29.1 +22 11 57   0.2518  0.9017    63.8   101.7    21.4
2024 01 25    23 33 35.5 +21 51 25   0.2507  0.8927    61.6   104.1    21.5
2024 01 26    23 27 36.4 +21 29 06   0.2497  0.8837    59.3   106.6    21.6
...
2024 02 01    22 49 57.6 +18 32 07   0.2466  0.8320    45.7   122.0    22.5
...
2024 02 09    21 58 23.4 +12 29 45   0.2555  0.7718    28.6   142.3    24.6
...
2024 02 24    20 48 48.6 -01 25 49   0.3358  0.7013    25.5   142.6    25.0

A. U. Tomatic                (C) Copyright 2024 MPC           M.P.E.C. 2024-B132





More information about the Iaude mailing list